FW3182 Weather Reports


Display with metric or nautical units.
time (UTC)temp
F
wind
direction
speed
MPH
gust
MPH
rain 1hr
in
rain 24hr
in
rain mn
in
humidity
%
barometer
mb
20260831175204 96 201 2.0 6.0 0.00 0.00 0.00 42 1014.8
20260831174703 97 241 3.0 5.0 0.00 0.00 0.00 43 1014.7
20260831174204 96 236 1.0 9.0 0.00 0.00 0.00 44 1014.8
20260831173703 95 224 2.0 5.0 0.00 0.00 0.00 45 1014.9
20260831173203 95 304 1.0 5.0 0.00 0.00 0.00 46 1014.9
20260831172704 95 261 2.0 6.0 0.00 0.00 0.00 46 1015.0
20260831172204 95 191 3.0 7.0 0.00 0.00 0.00 46 1015.1
20260831171703 96 301 3.0 6.0 0.00 0.00 0.00 46 1015.2
20260831171204 95 60 1.0 3.0 0.00 0.00 0.00 46 1015.2
20260831170704 94 114 2.0 7.0 0.00 0.00 0.00 48 1015.2
20260831165704 94 265 2.0 6.0 0.00 0.00 0.00 49 1015.4
20260831165203 94 187 3.0 6.0 0.00 0.00 0.00 50 1015.4
20260831164703 93 159 1.0 8.0 0.00 0.00 0.00 50 1015.5
20260831164203 93 225 5.0 10.0 0.00 0.00 0.00 49 1015.5
20260831162704 92 262 3.0 6.0 0.00 0.00 0.00 52 1015.6
20260831162203 92 211 2.0 5.0 0.00 0.00 0.00 53 1015.6
20260831161203 91 267 2.0 7.0 0.00 0.00 0.00 55 1015.6
20260831160703 91 187 5.0 10.0 0.00 0.00 0.00 55 1015.6
20260831160204 91 192 2.0 5.0 0.00 0.00 0.00 56 1015.7
20260831155703 90 140 1.0 5.0 0.00 0.00 0.00 58 1015.7
20260831155203 89 264 1.0 3.0 0.00 0.00 0.00 59 1015.8
20260831154704 89 220 0.0 5.0 0.00 0.00 0.00 60 1015.7
20260831154204 89 212 2.0 7.0 0.00 0.00 0.00 60 1015.7
20260831153704 88 234 1.0 3.0 0.00 0.00 0.00 61 1015.8
20260831153204 87 136 2.0 5.0 0.00 0.00 0.00 61 1015.8
20260831152704 87 216 2.0 3.0 0.00 0.00 0.00 63 1015.8
20260831152203 85 296 1.0 3.0 0.00 0.00 0.00 64 1015.8
20260831151204 85 127 1.0 3.0 0.00 0.00 0.00 65 1015.8
20260831150704 85 127 1.0 2.0 0.00 0.00 0.00 64 1015.9
20260831150204 84 123 2.0 3.0 0.00 0.00 0.00 65 1015.9
20260831145204 84 145 1.0 2.0 0.00 0.00 0.00 66 1015.9
20260831144203 83 83 0.0 2.0 0.00 0.00 0.00 67 1015.9
20260831143204 82 54 1.0 2.0 0.00 0.00 0.00 66 1015.9
20260831142703 83 74 1.0 2.0 0.00 0.00 0.00 66 1015.9
20260831141204 81 195 0.0 0.0 0.00 0.00 0.00 68 1016.0
20260831140203 80 68 0.0 2.0 0.00 0.00 0.00 69 1015.8
20260831135703 80 64 0.0 2.0 0.00 0.00 0.00 68 1015.8
20260831135204 80 79 0.0 1.0 0.00 0.00 0.00 70 1015.9
20260831134703 80 180 0.0 2.0 0.00 0.00 0.00 69 1015.8
20260831134203 79 67 0.0 2.0 0.00 0.00 0.00 70 1015.8
20260831133704 78 87 0.0 1.0 0.00 0.00 0.00 71 1015.7
20260831132703 77 107 0.0 0.0 0.00 0.00 0.00 73 1015.6
20260831132203 77 107 0.0 0.0 0.00 0.00 0.00 74 1015.6
20260831131704 76 85 0.0 0.0 0.00 0.00 0.00 75 1015.6
20260831131204 75 84 0.0 0.0 0.00 0.00 0.00 76 1015.6
20260831130704 74 92 0.0 0.0 0.00 0.00 0.00 78 1015.6
20260831125703 71 92 0.0 0.0 0.00 0.00 0.00 81 1015.3
20260831125204 71 92 0.0 0.0 0.00 0.00 0.00 81 1015.2
20260831124704 71 92 0.0 0.0 0.00 0.00 0.00 81 1015.2
20260831124203 70 92 0.0 0.0 0.00 0.00 0.00 82 1015.2
20260831123703 70 92 0.0 0.0 0.00 0.00 0.00 82 1015.2
20260831122704 70 92 0.0 0.0 0.00 0.00 0.00 82 1015.0
20260831122204 70 92 0.0 0.0 0.00 0.00 0.00 82 1014.9
20260831121204 69 92 0.0 0.0 0.00 0.00 0.00 82 1014.7
20260831120704 69 92 0.0 0.0 0.00 0.00 0.00 82 1014.7
20260831120203 69 92 0.0 0.0 0.00 0.00 0.00 83 1014.6
20260831115203 69 86 0.0 0.0 0.00 0.00 0.00 83 1014.6
20260831114704 69 86 0.0 0.0 0.00 0.00 0.00 83 1014.5
20260831113203 69 86 0.0 0.0 0.00 0.00 0.00 83 1014.3
20260831112704 69 86 0.0 0.0 0.00 0.00 0.00 82 1014.3
20260831111704 70 86 0.0 0.0 0.00 0.00 0.00 82 1014.2
20260831110704 70 86 0.0 0.0 0.00 0.00 0.00 80 1014.1
20260831110203 70 86 0.0 0.0 0.00 0.00 0.00 80 1014.1
20260831105703 70 86 0.0 0.0 0.00 0.00 0.00 80 1014.0
20260831105204 70 86 0.0 0.0 0.00 0.00 0.00 80 1014.0
20260831104704 70 91 0.0 0.0 0.00 0.00 0.00 80 1014.0
20260831104203 70 91 0.0 0.0 0.00 0.00 0.00 81 1014.0
20260831103704 70 91 0.0 0.0 0.00 0.00 0.00 81 1014.0
20260831103204 70 93 0.0 0.0 0.00 0.00 0.00 81 1014.0
20260831102203 71 93 0.0 0.0 0.00 0.00 0.00 80 1014.0
20260831101704 71 93 0.0 0.0 0.00 0.00 0.00 80 1014.0
20260831101203 71 93 0.0 0.0 0.00 0.00 0.00 79 1014.0
20260831100703 71 93 0.0 0.0 0.00 0.00 0.00 79 1014.0
20260831095204 71 93 0.0 0.0 0.00 0.00 0.00 78 1014.0
20260831094704 71 93 0.0 0.0 0.00 0.00 0.00 78 1013.8
20260831094204 71 93 0.0 0.0 0.00 0.00 0.00 78 1013.8
20260831093703 71 93 0.0 0.0 0.00 0.00 0.00 79 1013.9
20260831093204 71 93 0.0 0.0 0.00 0.00 0.00 79 1014.0
20260831092703 71 93 0.0 0.0 0.00 0.00 0.00 79 1013.9
20260831092204 71 93 0.0 0.0 0.00 0.00 0.00 79 1014.0
20260831091703 71 93 0.0 0.0 0.00 0.00 0.00 79 1013.9
20260831091203 71 93 0.0 0.0 0.00 0.00 0.00 79 1013.8
20260831090704 72 93 0.0 0.0 0.00 0.00 0.00 78 1013.8
20260831090203 72 93 0.0 0.0 0.00 0.00 0.00 78 1013.8
20260831085204 72 93 0.0 0.0 0.00 0.00 0.00 76 1013.8
20260831084704 72 93 0.0 0.0 0.00 0.00 0.00 76 1013.8
20260831084204 72 93 0.0 0.0 0.00 0.00 0.00 76 1013.8
20260831083703 72 93 0.0 0.0 0.00 0.00 0.00 76 1013.8
20260831083204 72 93 0.0 0.0 0.00 0.00 0.00 76 1013.8
20260831082704 72 93 0.0 0.0 0.00 0.00 0.00 76 1013.7
20260831082203 72 93 0.0 0.0 0.00 0.00 0.00 76 1013.6
20260831081703 73 93 0.0 0.0 0.00 0.00 0.00 76 1013.6
20260831081204 73 93 0.0 0.0 0.00 0.00 0.00 76 1013.5
20260831080703 73 160 0.0 0.0 0.00 0.00 0.00 76 1013.4
20260831080204 73 160 0.0 0.0 0.00 0.00 0.00 76 1013.4
20260831075204 73 160 0.0 0.0 0.00 0.00 0.00 76 1013.3
20260831074703 73 162 0.0 0.0 0.00 0.00 0.00 76 1013.3
20260831073704 73 162 0.0 0.0 0.00 0.00 0.00 75 1013.4
20260831073203 73 162 0.0 0.0 0.00 0.00 0.00 75 1013.4
20260831072703 73 162 0.0 0.0 0.00 0.00 0.00 75 1013.5
20260831071703 74 162 0.0 0.0 0.00 0.00 0.00 74 1013.5
20260831071203 74 162 0.0 0.0 0.00 0.00 0.00 74 1013.5
20260831070704 74 162 0.0 0.0 0.00 0.00 0.00 74 1013.5
20260831065703 74 169 0.0 0.0 0.00 0.00 0.00 73 1013.8
20260831065204 74 169 0.0 0.0 0.00 0.00 0.00 73 1013.8
20260831064204 75 169 0.0 0.0 0.00 0.00 0.00 72 1013.9
20260831063704 75 169 0.0 0.0 0.00 0.00 0.00 72 1013.8
20260831063204 75 174 0.0 1.0 0.00 0.00 0.00 71 1013.8
20260831061203 76 179 0.0 0.0 0.00 0.00 0.00 71 1013.9
20260831060704 76 204 0.0 1.0 0.00 0.00 0.00 70 1013.8
20260831060204 76 150 0.0 1.0 0.00 0.00 0.00 70 1013.8
20260831055703 76 210 0.0 0.0 0.00 0.00 0.00 70 1013.8
20260831055203 76 210 0.0 0.0 0.00 0.00 0.00 70 1013.7
20260831054704 76 211 0.0 0.0 0.00 0.00 0.00 70 1013.8
20260831054203 77 200 0.0 0.0 0.00 0.00 0.00 69 1013.8
20260831053704 77 191 0.0 0.0 0.00 0.00 0.00 69 1013.7
20260831053204 77 166 0.0 1.0 0.00 0.00 0.00 69 1013.7
20260831052704 77 204 0.0 2.0 0.00 0.00 0.00 69 1013.6
20260831052204 77 160 0.0 1.0 0.00 0.00 0.00 69 1013.6
20260831051704 77 168 0.0 1.0 0.00 0.00 0.00 68 1013.7
20260831051204 78 216 0.0 1.0 0.00 0.00 0.00 68 1013.6
20260831050704 78 115 0.0 0.0 0.00 0.00 0.00 68 1013.6
20260831050204 78 98 0.0 0.0 0.00 0.00 0.00 67 1013.5
20260831045704 78 98 0.0 2.0 0.00 0.00 0.00 67 1013.4
20260831045204 78 165 0.0 1.0 0.00 0.00 0.00 67 1013.3
20260831044703 79 188 1.0 3.0 0.00 0.00 0.00 67 1013.3
20260831043704 79 112 0.0 2.0 0.00 0.00 0.00 66 1013.3
20260831042704 79 175 1.0 2.0 0.00 0.00 0.00 66 1013.2
20260831042204 80 195 0.0 3.0 0.00 0.00 0.00 66 1013.2
20260831041703 80 198 0.0 1.0 0.00 0.00 0.00 65 1013.1
20260831040203 80 198 1.0 3.0 0.00 0.00 0.00 65 1013.1
20260831035704 80 159 1.0 2.0 0.00 0.00 0.00 65 1013.1
20260831035204 80 204 1.0 3.0 0.00 0.00 0.00 65 1013.1
20260831034204 80 86 0.0 1.0 0.00 0.00 0.00 65 1013.0
20260831033704 80 124 0.0 1.0 0.00 0.00 0.00 65 1013.1
20260831033204 80 164 0.0 3.0 0.00 0.00 0.00 65 1013.1
20260831032704 80 226 0.0 1.0 0.00 0.00 0.00 65 1013.0
20260831032204 81 63 0.0 1.0 0.00 0.00 0.00 64 1013.0
20260831031703 81 171 0.0 1.0 0.00 0.00 0.00 64 1013.0
20260831030204 82 120 0.0 0.0 0.00 0.00 0.00 63 1013.0
20260831025704 82 120 0.0 0.0 0.00 0.00 0.00 62 1013.0
20260831025204 82 142 0.0 2.0 0.00 0.00 0.00 62 1012.9
20260831024704 82 169 0.0 3.0 0.00 0.00 0.00 62 1012.9
20260831024203 82 202 0.0 3.0 0.00 0.00 0.00 62 1013.0
20260831023704 83 121 0.0 1.0 0.00 0.00 0.00 62 1013.0
20260831023203 83 135 0.0 2.0 0.00 0.00 0.00 62 1012.9
20260831022705 83 196 0.0 0.0 0.00 0.00 0.00 61 1012.9
20260831022203 83 89 0.0 1.0 0.00 0.00 0.00 61 1012.8
20260831021704 83 184 0.0 2.0 0.00 0.00 0.00 61 1012.7
20260831021203 83 233 0.0 1.0 0.00 0.00 0.00 60 1012.6
20260831020704 83 208 0.0 3.0 0.00 0.00 0.00 60 1012.6
20260831015204 84 137 0.0 1.0 0.00 0.00 0.00 59 1012.3
20260831014703 84 243 0.0 1.0 0.00 0.00 0.00 59 1012.3
20260831014204 84 112 0.0 0.0 0.00 0.00 0.00 58 1012.3
20260831013703 84 93 0.0 0.0 0.00 0.00 0.00 57 1012.3
20260831013204 84 93 0.0 0.0 0.00 0.00 0.00 57 1012.1
20260831012703 85 93 0.0 0.0 0.00 0.00 0.00 56 1012.1
20260831012204 85 142 0.0 0.0 0.00 0.00 0.00 56 1012.1
20260831011703 85 98 0.0 2.0 0.00 0.00 0.00 55 1012.0
20260831010704 86 190 0.0 1.0 0.00 0.00 0.00 54 1011.8
20260831010204 86 190 0.0 1.0 0.00 0.00 0.00 53 1011.8
20260831005703 86 115 0.0 1.0 0.00 0.00 0.00 52 1011.8
20260831005204 86 191 0.0 1.0 0.00 0.00 0.00 51 1011.8
20260831004704 87 217 0.0 0.0 0.00 0.00 0.00 51 1011.7
20260831003704 88 217 0.0 0.0 0.00 0.00 0.00 51 1011.8
20260831003203 88 221 0.0 0.0 0.00 0.00 0.00 50 1011.7
20260831002704 89 221 0.0 0.0 0.00 0.00 0.00 50 1011.7
20260831002204 89 221 0.0 0.0 0.00 0.00 0.00 49 1011.8
20260831001704 90 221 0.0 0.0 0.00 0.00 0.00 47 1011.8
20260831001203 90 182 0.0 0.0 0.00 0.00 0.00 48 1011.7
20260831000204 91 56 0.0 0.0 0.00 0.00 0.00 48 1011.8
20260830235703 91 56 0.0 1.0 0.00 0.00 0.00 46 1011.9
20260830235203 92 64 0.0 2.0 0.00 0.00 0.00 45 1011.8
20260830234704 92 326 0.0 3.0 0.00 0.00 0.00 45 1011.9
20260830234203 93 124 0.0 1.0 0.00 0.00 0.00 45 1011.9
20260830233704 93 151 0.0 1.0 0.00 0.00 0.00 45 1011.9
20260830233203 93 107 0.0 2.0 0.00 0.00 0.00 44 1011.9
20260830232204 95 95 0.0 0.0 0.00 0.00 0.00 42 1011.8
20260830231703 95 70 0.0 1.0 0.00 0.00 0.00 42 1011.8
20260830231204 96 136 1.0 2.0 0.00 0.00 0.00 41 1011.7
20260830230203 95 165 0.0 3.0 0.00 0.00 0.00 41 1011.6
20260830225704 96 89 1.0 3.0 0.00 0.00 0.00 40 1011.7
20260830225203 96 69 1.0 2.0 0.00 0.00 0.00 39 1011.7
20260830224704 97 204 1.0 6.0 0.00 0.00 0.00 38 1011.7
20260830224204 97 144 1.0 5.0 0.00 0.00 0.00 37 1011.7
20260830223704 97 157 2.0 7.0 0.00 0.00 0.00 37 1011.6
20260830223204 98 137 3.0 5.0 0.00 0.00 0.00 36 1011.7
20260830222703 98 198 2.0 12.0 0.00 0.00 0.00 36 1011.8
20260830221704 99 220 1.0 3.0 0.00 0.00 0.00 34 1011.7
20260830221204 99 188 2.0 6.0 0.00 0.00 0.00 35 1011.7
20260830220703 99 160 3.0 6.0 0.00 0.00 0.00 34 1011.8
20260830220204 100 190 3.0 10.0 0.00 0.00 0.00 35 1011.7
20260830215703 100 183 1.0 3.0 0.00 0.00 0.00 35 1011.7
20260830215204 100 235 1.0 2.0 0.00 0.00 0.00 36 1011.8
20260830214704 99 143 1.0 7.0 0.00 0.00 0.00 35 1011.8
20260830213704 99 141 2.0 5.0 0.00 0.00 0.00 36 1011.9
20260830213204 99 112 2.0 5.0 0.00 0.00 0.00 37 1011.9
20260830212703 99 41 0.0 2.0 0.00 0.00 0.00 36 1011.9
20260830212203 98 340 1.0 7.0 0.00 0.00 0.00 38 1012.0
20260830211704 98 221 4.0 7.0 0.00 0.00 0.00 37 1012.0
20260830211204 98 43 2.0 6.0 0.00 0.00 0.00 38 1012.0
20260830210704 98 134 1.0 5.0 0.00 0.00 0.00 38 1012.0
20260830210203 98 93 5.0 9.0 0.00 0.00 0.00 38 1012.1
20260830205704 99 211 3.0 9.0 0.00 0.00 0.00 37 1012.1
20260830203704 98 84 2.0 12.0 0.00 0.00 0.00 37 1012.4
20260830203203 99 205 3.0 12.0 0.00 0.00 0.00 37 1012.3
20260830202704 98 73 1.0 3.0 0.00 0.00 0.00 38 1012.4
20260830202204 98 243 2.0 5.0 0.00 0.00 0.00 37 1012.4
20260830201703 98 179 1.0 8.0 0.00 0.00 0.00 38 1012.4
20260830201204 98 250 1.0 10.0 0.00 0.00 0.00 40 1012.4
20260830200704 98 199 6.0 12.0 0.00 0.00 0.00 37 1012.4
20260830195704 97 264 2.0 7.0 0.00 0.00 0.00 39 1012.4
20260830195203 97 206 2.0 12.0 0.00 0.00 0.00 42 1012.6
20260830194704 96 263 1.0 6.0 0.00 0.00 0.00 39 1012.6
20260830194204 97 240 5.0 13.0 0.00 0.00 0.00 41 1012.7
20260830193703 97 214 3.0 14.0 0.00 0.00 0.00 40 1012.7
20260830193205 97 167 5.0 12.0 0.00 0.00 0.00 39 1012.9
20260830192704 98 128 1.0 5.0 0.00 0.00 0.00 41 1013.0
20260830192204 97 197 2.0 7.0 0.00 0.00 0.00 42 1013.1
20260830191704 96 168 1.0 7.0 0.00 0.00 0.00 42 1013.1
20260830191203 96 138 5.0 9.0 0.00 0.00 0.00 42 1013.1
20260830190703 96 182 5.0 12.0 0.00 0.00 0.00 41 1013.2
20260830190203 97 169 2.0 9.0 0.00 0.00 0.00 42 1013.3
20260830185704 97 197 2.0 6.0 0.00 0.00 0.00 41 1013.4
20260830184704 95 200 4.0 12.0 0.00 0.00 0.00 43 1013.4
20260830184204 95 213 2.0 10.0 0.00 0.00 0.00 43 1013.4
20260830183703 95 257 3.0 8.0 0.00 0.00 0.00 44 1013.7
20260830183204 95 246 5.0 9.0 0.00 0.00 0.00 45 1013.7
20260830182703 95 59 3.0 10.0 0.00 0.00 0.00 44 1013.8
20260830182203 96 199 5.0 10.0 0.00 0.00 0.00 44 1013.8
20260830181703 95 253 2.0 7.0 0.00 0.00 0.00 44 1013.8
20260830181204 95 160 2.0 8.0 0.00 0.00 0.00 43 1014.0
20260830180704 94 126 2.0 3.0 0.00 0.00 0.00 45 1013.9
20260830180204 93 278 2.0 7.0 0.00 0.00 0.00 46 1014.0
20260830175704 93 180 2.0 8.0 0.00 0.00 0.00 48 1014.0